EW6229 Weather Reports


time (UTC)temp
C
wind
direction
speed
KPH
gust
KPH
rain 1hr
cm
rain 24hr
cm
rain mn
cm
humidity
%
barometer
mb
20190424140908 13 157 25.7 35.4 0.00 0.13 0.13 59 1014.6
20190424135907 13 180 14.5 29.0 0.00 0.13 0.13 59 1014.6
20190424131908 13 135 32.2 48.3 0.00 0.13 0.13 60 1014.6
20190424122908 13 157 17.7 38.6 0.00 0.13 0.13 59 1014.6
20190424120907 13 157 30.6 38.6 0.00 0.13 0.13 60 1014.6
20190424115907 13 135 24.1 32.2 0.00 0.13 0.13 61 1014.6
20190424114908 13 180 12.9 25.7 0.00 0.13 0.13 60 1014.6
20190424113907 13 157 16.1 22.5 0.00 0.13 0.13 60 1014.6
20190424110907 13 157 46.7 62.8 0.00 0.13 0.13 59 1014.6
20190424103910 13 135 17.7 25.7 0.00 0.13 0.13 58 1013.6
20190424102910 14 157 27.4 38.6 0.00 0.13 0.13 58 1013.6
20190424101912 14 135 29.0 54.7 0.00 0.13 0.13 58 1013.6
20190424100910 14 157 22.5 38.6 0.00 0.13 0.13 58 1013.6
20190424095910 14 67 16.1 35.4 0.00 0.13 0.13 58 1013.6
20190424094910 14 157 24.1 29.0 0.00 0.13 0.13 58 1013.6
20190424092911 13 180 27.4 35.4 0.00 0.13 0.13 60 1013.6
20190424090910 13 135 17.7 22.5 0.00 0.13 0.13 60 1013.6
20190424085911 13 225 11.3 38.6 0.00 0.13 0.13 60 1013.6
20190424084910 13 157 19.3 22.5 0.00 0.13 0.13 62 1013.6
20190424083910 12 157 32.2 38.6 0.00 0.13 0.13 63 1013.6
20190424082910 13 180 16.1 35.4 0.00 0.13 0.13 62 1013.6
20190424081910 13 157 19.3 29.0 0.00 0.13 0.13 61 1013.6
20190424080910 13 135 25.7 32.2 0.00 0.13 0.13 61 1013.6
20190424073910 12 157 24.1 35.4 0.00 0.13 0.13 62 1012.6
20190424072910 12 180 37.0 48.3 0.00 0.13 0.13 62 1012.6
20190424064910 11 157 19.3 25.7 0.00 0.13 0.13 67 1012.6
20190424062910 10 225 12.9 19.3 0.03 0.13 0.13 69 1012.6
20190424061041 10 157 17.7 25.7 0.03 0.13 0.13 70 1012.6
20190424055910 10 157 27.4 41.8 0.03 0.13 0.13 70 1012.6
20190424054910 10 157 22.5 32.2 0.03 0.13 0.13 69 1012.6
20190424050910 10 157 22.5 25.7 0.00 0.10 0.10 68 1011.6
20190424044910 10 157 20.9 25.7 0.00 0.10 0.10 68 1011.6
20190424041909 10 202 25.7 32.2 0.00 0.10 0.10 68 1011.6
20190424032909 9 135 24.1 29.0 0.00 0.10 0.10 72 1010.6
20190424031909 9 157 27.4 41.8 0.00 0.10 0.10 71 1010.6
20190424030909 8 157 16.1 22.5 0.00 0.10 0.10 72 1010.6
20190424024909 8 135 12.9 22.5 0.00 0.10 0.10 72 1010.6
20190424023910 8 135 17.7 22.5 0.00 0.10 0.10 72 1010.6
20190424022909 8 180 14.5 25.7 0.00 0.10 0.10 72 1010.6
20190424021909 8 180 22.5 38.6 0.03 0.10 0.10 72 1010.6
20190424020909 8 157 20.9 35.4 0.03 0.10 0.10 73 1010.6
20190424015909 8 180 22.5 29.0 0.03 0.10 0.10 74 1010.6
20190424014909 8 157 9.7 12.9 0.03 0.10 0.10 75 1010.6
20190424013909 7 135 17.7 29.0 0.05 0.10 0.10 76 1010.6
20190424011909 7 157 12.9 19.3 0.03 0.08 0.08 76 1010.6
20190424010909 7 135 16.1 29.0 0.03 0.08 0.08 76 1010.6
20190424005909 8 157 9.7 16.1 0.03 0.08 0.08 76 1010.6
20190424004909 8 157 20.9 29.0 0.03 0.08 0.08 76 1011.6
20190424003909 8 135 17.7 25.7 0.00 0.05 0.05 76 1011.6
20190424002908 8 135 17.7 25.7 0.00 0.05 0.05 76 1010.6
20190424001909 8 202 16.1 25.7 0.03 0.05 0.05 75 1010.6
20190423234909 7 157 14.5 16.1 0.03 0.05 0.05 76 1010.6
20190423233909 8 135 11.3 19.3 0.03 0.05 0.05 75 1010.6
20190423231909 8 180 14.5 16.1 0.03 0.03 0.03 75 1010.6
20190423225908 8 157 17.7 19.3 0.03 0.03 0.03 75 1010.6
20190423224908 8 135 16.1 25.7 0.03 0.03 0.03 75 1010.6
20190423223908 8 157 17.7 22.5 0.03 0.03 0.03 72 1010.6
20190423221908 8 157 11.3 16.1 0.00 0.00 0.00 69 1010.6
20190423220908 9 157 22.5 29.0 0.00 0.00 0.00 67 1010.6
20190423214908 9 180 17.7 22.5 0.00 0.05 0.05 67 1010.6
20190423212909 9 135 17.7 32.2 0.00 0.05 0.05 66 1010.6
20190423205908 9 135 33.8 41.8 0.00 0.05 0.05 65 1010.6
20190423194908 8 157 25.7 32.2 0.00 0.05 0.05 67 1010.6
20190423193908 8 112 14.5 22.5 0.00 0.05 0.05 67 1010.6
20190423190908 8 157 17.7 22.5 0.00 0.05 0.05 68 1009.6
20190423184908 8 135 19.3 32.2 0.00 0.05 0.05 68 1009.6
20190423183908 8 180 12.9 19.3 0.00 0.05 0.05 68 1009.6
20190423181908 8 180 16.1 32.2 0.00 0.05 0.05 68 1009.6
20190423180908 8 135 19.3 25.7 0.00 0.05 0.05 69 1009.6
20190423175908 9 135 19.3 25.7 0.00 0.05 0.05 70 1009.6
20190423174908 9 157 29.0 38.6 0.00 0.05 0.05 69 1008.6
20190423172908 9 157 19.3 29.0 0.00 0.05 0.05 68 1008.6
20190423171909 9 135 14.5 25.7 0.00 0.05 0.05 68 1008.6
20190423170908 9 135 19.3 22.5 0.00 0.05 0.05 68 1008.6
20190423165908 9 135 24.1 29.0 0.00 0.05 0.05 68 1008.6
20190423164908 9 135 16.1 35.4 0.00 0.05 0.05 68 1008.6
20190423163908 9 180 8.0 12.9 0.00 0.05 0.05 68 1008.6
20190423161908 10 157 11.3 22.5 0.00 0.05 0.05 68 1008.6
20190423160907 10 180 24.1 38.6 0.00 0.05 0.05 68 1008.6
20190423155907 10 135 11.3 19.3 0.00 0.05 0.05 68 1008.6
20190423154907 10 247 24.1 45.1 0.00 0.05 0.05 66 1008.6
20190423153907 10 157 20.9 25.7 0.00 0.05 0.05 66 1008.6
20190423152907 10 135 25.7 35.4 0.00 0.05 0.05 66 1008.6
20190423150908 10 157 17.7 25.7 0.00 0.05 0.05 68 1008.6
20190423145908 10 180 24.1 38.6 0.03 0.05 0.05 67 1008.6
20190423144908 10 157 14.5 25.7 0.03 0.05 0.05 67 1008.6
20190423141907 10 157 20.9 29.0 0.05 0.05 0.05 69 1008.6